Hourly Weather Alia

Today, 8 March, Monday

Time Temperature Precipitation Wind Pressure Humidity
00:00 +6°C° 0 mm 2 mps 709 mmHg 92%
01:00 +6°C° 0 mm 2 mps 708 mmHg 94%
02:00 +6°C° 0 mm 2 mps 708 mmHg 91%
03:00 +6°C° 0 mm 2 mps 707 mmHg 89%
04:00 +6°C° 0 mm 2 mps 707 mmHg 86%
05:00 +5°C° 0 mm 2 mps 707 mmHg 85%
06:00 +5°C° 0 mm 2 mps 707 mmHg 84%
07:00 +5°C° 0 mm 2 mps 706 mmHg 83%
08:00 +7°C° 0 mm 2 mps 707 mmHg 77%
09:00 +9°C° 0 mm 2 mps 707 mmHg 70%
10:00 +11°C° 0 mm 3 mps 707 mmHg 64%
11:00 +12°C° 0 mm 3 mps 707 mmHg 64%
12:00 +12°C° 0 mm 3 mps 707 mmHg 64%
13:00 +13°C° 0 mm 3 mps 707 mmHg 64%
14:00 +14°C° 0 mm 2 mps 707 mmHg 66%
15:00 +13°C° 0 mm 2 mps 706 mmHg 69%
16:00 +13°C° 0 mm 2 mps 706 mmHg 72%
17:00 +11°C° 0 mm 1 mps 706 mmHg 77%
18:00 +10°C° 0 mm 1 mps 706 mmHg 83%
19:00 +7°C° 0 mm 0 mps 706 mmHg 89%
20:00 +8°C° 0 mm 1 mps 706 mmHg 90%
21:00 +7°C° 0 mm 1 mps 706 mmHg 91%
22:00 +7°C° 0 mm 1 mps 706 mmHg 92%
23:00 +7°C° 0 mm 1 mps 706 mmHg 92%

Tomorrow, 9 March, Tuesday

Time Temperature Precipitation Wind Pressure Humidity
00:00 +7°C° 0 mm 1 mps 706 mmHg 93%
01:00 +6°C° 0 mm 1 mps 706 mmHg 93%
02:00 +6°C° 0 mm 1 mps 706 mmHg 93%
03:00 +6°C° 0 mm 1 mps 706 mmHg 92%
04:00 +6°C° 0 mm 1 mps 705 mmHg 92%
05:00 +6°C° 0 mm 1 mps 705 mmHg 91%
06:00 +6°C° 0 mm 1 mps 706 mmHg 91%
07:00 +7°C° 0 mm 1 mps 706 mmHg 90%
08:00 +8°C° 0 mm 2 mps 706 mmHg 84%
09:00 +10°C° 0 mm 2 mps 707 mmHg 79%
10:00 +13°C° 0 mm 2 mps 707 mmHg 73%
11:00 +13°C° 0 mm 2 mps 707 mmHg 72%
12:00 +14°C° 0 mm 2 mps 707 mmHg 70%
13:00 +13°C° 0 mm 3 mps 707 mmHg 69%
14:00 +14°C° 0 mm 2 mps 707 mmHg 71%
15:00 +13°C° 0 mm 2 mps 707 mmHg 73%
16:00 +13°C° 0 mm 2 mps 706 mmHg 74%
17:00 +12°C° 0 mm 2 mps 706 mmHg 80%
18:00 +9°C° 0 mm 2 mps 706 mmHg 86%
19:00 +8°C° 0 mm 2 mps 706 mmHg 91%
20:00 +7°C° 0 mm 2 mps 706 mmHg 93%
21:00 +7°C° 0 mm 2 mps 706 mmHg 94%
22:00 +7°C° 0 mm 2 mps 706 mmHg 95%
23:00 +7°C° 0 mm 2 mps 706 mmHg 95%

Day after tomorrow, 10 March, Wednesday

Time Temperature Precipitation Wind Pressure Humidity
00:00 +7°C° 0 mm 2 mps 706 mmHg 95%
01:00 +8°C° 0 mm 2 mps 706 mmHg 95%
02:00 +8°C° 0.1 mm 2 mps 706 mmHg 95%
03:00 +8°C° 0.1 mm 2 mps 705 mmHg 95%
04:00 +8°C° 0.1 mm 2 mps 705 mmHg 96%
05:00 +8°C° 0 mm 2 mps 705 mmHg 95%
06:00 +8°C° 0 mm 2 mps 705 mmHg 95%
07:00 +9°C° 0 mm 1 mps 705 mmHg 94%
08:00 +9°C° 0 mm 2 mps 706 mmHg 89%
09:00 +10°C° 0 mm 2 mps 706 mmHg 83%
10:00 +12°C° 0 mm 2 mps 707 mmHg 77%
11:00 +12°C° 0.2 mm 2 mps 707 mmHg 77%
12:00 +12°C° 0.2 mm 3 mps 708 mmHg 76%
13:00 +12°C° 0.2 mm 3 mps 708 mmHg 76%
14:00 +12°C° 0.2 mm 3 mps 708 mmHg 76%
15:00 +11°C° 0.2 mm 4 mps 707 mmHg 76%
16:00 +11°C° 0.2 mm 4 mps 707 mmHg 77%
17:00 +8°C° 0.1 mm 4 mps 707 mmHg 81%
18:00 +7°C° 0.1 mm 3 mps 708 mmHg 86%
19:00 +6°C° 0.1 mm 2 mps 708 mmHg 91%
20:00 +5°C° 0 mm 2 mps 708 mmHg 92%
21:00 +5°C° 0 mm 2 mps 708 mmHg 92%
22:00 +5°C° 0 mm 2 mps 709 mmHg 93%
23:00 +4°C° 0 mm 2 mps 709 mmHg 93%

11 March, Thursday

Time Temperature Precipitation Wind Pressure Humidity
00:00 +4°C° 0 mm 2 mps 709 mmHg 93%
01:00 +4°C° 0 mm 2 mps 709 mmHg 92%
02:00 +4°C° 0 mm 2 mps 709 mmHg 92%
03:00 +4°C° 0 mm 2 mps 709 mmHg 91%
04:00 +4°C° 0 mm 1 mps 709 mmHg 91%
05:00 +5°C° 0 mm 1 mps 709 mmHg 90%
06:00 +5°C° 0 mm 1 mps 710 mmHg 90%
07:00 +5°C° 0 mm 1 mps 710 mmHg 89%
08:00 +7°C° 0 mm 1 mps 711 mmHg 83%
09:00 +8°C° 0 mm 2 mps 712 mmHg 77%
10:00 +10°C° 0 mm 2 mps 713 mmHg 70%
11:00 +10°C° 0 mm 3 mps 713 mmHg 68%
12:00 +11°C° 0 mm 3 mps 713 mmHg 67%
13:00 +12°C° 0 mm 3 mps 713 mmHg 65%
14:00 +11°C° 0 mm 3 mps 713 mmHg 66%
15:00 +11°C° 0 mm 3 mps 713 mmHg 67%
16:00 +11°C° 0 mm 3 mps 713 mmHg 68%
17:00 +9°C° 0 mm 2 mps 713 mmHg 75%
18:00 +7°C° 0 mm 2 mps 713 mmHg 82%
19:00 +6°C° 0 mm 1 mps 713 mmHg 89%
20:00 +5°C° 0 mm 1 mps 713 mmHg 88%
21:00 +5°C° 0 mm 1 mps 713 mmHg 88%
22:00 +4°C° 0 mm 1 mps 714 mmHg 87%
23:00 +4°C° 0 mm 1 mps 714 mmHg 80%

12 March, Friday

Time Temperature Precipitation Wind Pressure Humidity
00:00 +4°C° 0 mm 1 mps 714 mmHg 73%
01:00 +4°C° 0 mm 1 mps 714 mmHg 67%
02:00 +3°C° 0 mm 1 mps 713 mmHg 63%
03:00 +3°C° 0 mm 1 mps 713 mmHg 60%
04:00 +3°C° 0 mm 1 mps 712 mmHg 57%
05:00 +4°C° 0 mm 1 mps 712 mmHg 60%
06:00 +4°C° 0 mm 1 mps 712 mmHg 63%
07:00 +4°C° 0 mm 1 mps 712 mmHg 66%
08:00 +7°C° 0 mm 1 mps 713 mmHg 63%
09:00 +9°C° 0 mm 1 mps 714 mmHg 59%
10:00 +12°C° 0 mm 1 mps 714 mmHg 56%
11:00 +13°C° 0 mm 1 mps 714 mmHg 55%
12:00 +14°C° 0 mm 2 mps 714 mmHg 54%
13:00 +15°C° 0 mm 2 mps 714 mmHg 52%
14:00 +14°C° 0 mm 2 mps 713 mmHg 57%
15:00 +14°C° 0 mm 2 mps 713 mmHg 61%
16:00 +13°C° 0 mm 2 mps 712 mmHg 65%
17:00 +11°C° 0 mm 1 mps 712 mmHg 71%
18:00 +9°C° 0 mm 1 mps 711 mmHg 77%
19:00 +5°C° 0 mm 0 mps 711 mmHg 83%
20:00 +6°C° 0 mm 1 mps 711 mmHg 83%
21:00 +6°C° 0 mm 1 mps 711 mmHg 83%
22:00 +6°C° 0 mm 1 mps 711 mmHg 84%
23:00 +5°C° 0 mm 1 mps 710 mmHg 86%

13 March, Saturday

Time Temperature Precipitation Wind Pressure Humidity
00:00 +5°C° 0 mm 1 mps 710 mmHg 88%
01:00 +5°C° 0 mm 1 mps 710 mmHg 90%
02:00 +5°C° 0 mm 1 mps 710 mmHg 87%
03:00 +6°C° 0 mm 1 mps 710 mmHg 84%
04:00 +5°C° 0 mm 0 mps 709 mmHg 81%
05:00 +6°C° 0 mm 1 mps 709 mmHg 78%
06:00 +6°C° 0 mm 1 mps 709 mmHg 75%
07:00 +7°C° 0 mm 1 mps 709 mmHg 73%
08:00 +8°C° 0 mm 1 mps 710 mmHg 67%
09:00 +10°C° 0 mm 1 mps 710 mmHg 62%
10:00 +11°C° 0 mm 1 mps 710 mmHg 56%
11:00 +12°C° 0 mm 1 mps 710 mmHg 54%
12:00 +12°C° 0 mm 1 mps 710 mmHg 52%
13:00 +13°C° 0 mm 1 mps 710 mmHg 50%
14:00 +13°C° 0 mm 1 mps 710 mmHg 53%
15:00 +12°C° 0 mm 2 mps 710 mmHg 57%
16:00 +12°C° 0 mm 2 mps 709 mmHg 60%
17:00 +11°C° 0 mm 1 mps 709 mmHg 66%
18:00 +9°C° 0 mm 1 mps 709 mmHg 72%
19:00 +7°C° 0 mm 1 mps 709 mmHg 77%
20:00 +7°C° 0 mm 1 mps 709 mmHg 77%
21:00 +7°C° 0 mm 1 mps 709 mmHg 78%
22:00 +6°C° 0 mm 1 mps 709 mmHg 78%
23:00 +6°C° 0 mm 1 mps 709 mmHg 82%
Show more